Location: Beetenbrück
(52.8113°N, 9.5946°E)
Time: 17:16:11
(UTC+00:00)

Cosmos 2369 Rocket - Pass Details

Date: 14 April 2026
Orbit: 829 x 850 km, 71.0° (Epoch: 8 May)

Event Time Altitude Azimuth Distance (km) Brightness Sun altitude
Rises 20:24:25 0° 329° (NNW) 3,388 6.9 -17.0°
Reaches altitude 10° 20:27:00 10° 336° (NNW) 2,449 5.7 -17.3°
Maximum altitude 20:32:20 43° 47° (NE) 1,159 2.9 -17.9°
Enters shadow 20:35:03 26° 103° (ESE) 1,594 3.2 -18.1°
